SCP
0 -0 -0 -0 0 0 0 1 0 0 0 1 1 1 1 0 0 0 0 0 0 0 0 0 0 1 1 0 0 0 0 0 0 0 0 0 0 0 0 0 0 0 0
0 0 0 0 0 0 0 0 1 1 0 1 1 1 1 1 1 0 0 1 0 0 1 0 0 1 1 1 0 0 0 0 0 0 0 0 0 0 0 0 0 0 0
0 0 0 0 0 0 0 0 0 1 2 2 2 2 1 0 0 0 0 1 1 1 1 1 1 1 1 1 1 0 0 0 0 0 0 0 0 0 0 0 0 0 0
0 0 0 0 0 0 0 0 0 1 3 2 3 3 1 0 0 0 0 -0 1 1 1 1 1 1 2 1 0 0 0 0 0 0 0 0 0 0 0 0 0 0 0
0 0 0 0 0 0 0 0 0 0 0 0 0 0 0 0 0 0 0 0 1 2 2 3 2 2 2 1 0 0 0 0 0 0 0 0 0 0 0 0 0 0 0
0 0 0 0 0 0 0 0 0 0 0 0 0 0 0 0 0 -0 -0 0 1 3 2 3 4 3 1 0 0 0 0 0 0 0 0 0 0 0 0 0 0 0 0
0 0 0 -0 0 0 0 0 0 0 0 0 0 0 0 0 0 0 0 -0 0 2 3 4 2 2 0 0 0 0 0 0 0 0 0 0 0 0 0 0 0 0 0
0 0 -0 -0 -0 0 0 0 0 0 0 0 0 0 0 0 0 0 0 -0 0 1 3 2 1 0 0 0 0 0 0 0 0 0 0 0 0 0 0 0 0 0 0
-0 -0 -0 -0 -0 -0 -0 0 0 0 0 0 0 0 0 0 0 0 -0 -0 0 0 0 0 0 0 0 0 0 0 0 0 0 0 0 0 0 0 0 0 0 0 0
-0 -0 -0 -0 -0 -0 -0 -0 0 0 0 0 0 0 0 0 0 0 -0 -0 0 0 0 -0 -0 0 0 0 0 0 0 0 0 0 0 0 0 0 0 0 0 0 0
-0 -0 -0 -0 -0 -0 -0 -0 -0 0 0 0 0 0 0 0 0 0 0 0 1 0 0 0 0 0 0 0 0 0 0 0 0 0 0 0 0 0 0 0 0 0 0
-0 -0 -0 -0 -0 -0 -0 -0 -0 -0 0 0 0 0 0 0 0 0 0 0 1 0 0 0 0 0 0 0 0 0 0 0 0 0 0 0 0 0 0 0 0 0 0
-0 -0 -0 -0 -0 -0 0 -0 -0 -0 -0 0 0 0 0 0 0 0 0 0 0 0 0 0 0 0 0 0 0 0 0 0 0 0 0 0 0 0 0 0 0 0 0
-0 -0 -0 0 0 -0 -0 -0 -0 -0 -0 -0 0 0 0 0 0 0 0 0 0 0 0 0 0 0 0 0 0 0 0 0 0 0 0 0 0 0 0 0 0 0 0
0 0 0 0 0 0 0 0 -0 -0 -0 -0 0 0 0 0 0 0 0 0 0 0 0 0 0 0 0 0 0 0 0 0 0 0 0 0 0 0 0 0 0 0 0
0 0 0 0 0 0 0 0 0 -0 -0 -0 0 0 0 0 0 0 0 0 0 0 0 0 0 0 0 0 0 0 0 0 0 0 0 0 0 0 0 0 0 0 0
0 0 0 0 0 0 0 0 0 -0 -0 -0 0 0 0 0 0 0 0 0 0 0 0 0 0 0 0 0 0 0 0 0 0 0 0 0 0 0 0 0 0 0 0
-0 -0 -0 -0 -0 -0 0 0 0 -0 0 0 0 0 0 0 0 0 0 0 0 0 0 0 0 0 0 0 0 0 0 0 0 0 0 0 0 0 0 0 0 0 0
-0 -0 0 0 -0 -0 0 0 0 0 0 0 0 0 0 0 0 0 0 0 0 0 0 0 0 0 0 0 0 0 0 0 0 0 0 0 0 0 0 0 0 0 0
0 0 0 0 0 -0 -0 -0 0 0 0 0 0 0 0 0 0 0 0 0 0 0 0 0 0 0 0 0 0 0 0 0 0 0 0 0 0 0 0 0 0 0 0
0 0 0 0 0 0 0 0 0 0 0 0 0 0 0 0 0 0 0 0 0 0 0 0 0 0 0 0 0 0 0 0 0 0 0 0 0 0 0 0 0 0 0
0 0 0 0 0 0 0 0 0 0 0 0 0 0 -0 -0 -0 0 0 0 0 0 0 0 0 0 0 0 0 0 0 0 0 0 0 0 0 0 0 0 0 0 0
0 0 0 0 0 0 0 0 0 0 0 0 0 -0 -0 -0 0 -0 0 0 0 0 0 0 0 0 0 0 0 0 0 0 0 0 0 0 0 0 0 0 0 0 0
0 0 0 0 0 0 0 0 0 0 -0 -0 -0 -0 -0 0 0 -0 0 0 0 0 0 0 0 0 0 0 0 0 0 0 0 0 0 0 0 0 0 0 0 0 0
0 0 0 0 0 0 0 0 0 0 0 0 0 -0 0 -0 -0 -0 -0 -0 -0 -0 0 0 0 0 0 0 0 0 0 0 0 0 0 0 0 0 0 0 0 0 0
-0 -0 0 0 0 0 0 0 0 0 0 0 0 -0 0 0 -0 -0 -0 -0 -0 -0 -0 -0 -0 -0 0 0 0 0 0 0 0 0 0 0 0 0 0 0 0 0 0
Wind_Speed_500mb
52 37 23 21 33 31 68 98 88 92 87 83 81 77 76 71 70 67 66 67 63 57 53 49 53 51 52 49 46 45 45 39 32 25 15 7 19 23 18 17 12 9 7
91 91 49 12 9 12 16 42 66 71 87 82 85 78 79 79 77 77 74 71 71 64 58 54 52 56 55 51 52 47 41 37 31 24 11 19 23 23 23 20 18 12 5
83 87 103 78 52 53 39 12 30 46 69 77 75 78 69 61 57 71 76 76 75 75 69 64 55 57 57 51 47 45 39 37 34 30 21 20 13 37 27 22 16 12 9
77 85 88 99 88 87 76 33 11 25 23 59 71 69 68 50 35 45 62 82 88 84 79 74 66 64 64 54 50 45 41 38 40 35 34 31 34 20 23 20 15 12 8
84 97 89 82 82 77 82 84 56 17 16 25 49 66 68 61 44 46 47 62 87 92 90 82 78 72 72 61 57 50 46 41 43 41 35 34 39 42 25 23 20 10 12
79 76 80 67 75 78 78 76 72 70 40 29 21 33 42 55 68 95 90 70 72 86 91 94 89 80 77 70 61 53 47 43 44 42 37 32 31 35 30 24 19 14 21
76 78 76 74 64 68 71 73 73 69 57 47 44 24 32 50 70 103 92 118 88 82 89 100 98 89 78 66 58 52 46 45 46 46 42 37 32 30 29 25 20 15 24
75 74 75 69 66 70 64 64 67 65 63 59 55 47 35 32 40 62 85 98 109 88 74 97 107 98 81 66 67 50 40 43 46 44 41 37 34 28 25 21 17 13 15
73 74 83 83 82 72 74 68 67 58 58 64 66 58 47 38 54 65 64 84 105 116 119 110 126 106 86 53 61 46 40 47 52 49 43 37 30 25 23 20 16 15 11
65 77 86 89 88 87 89 75 59 66 59 61 65 68 64 59 63 63 66 71 85 90 101 139 140 88 71 67 59 52 46 50 55 52 47 39 31 26 23 21 17 17 16
69 70 71 78 83 90 91 80 81 66 66 60 65 71 74 74 76 68 63 83 62 59 70 90 79 76 72 54 54 53 53 55 58 54 49 40 32 29 25 21 20 19 20
72 80 91 93 95 85 81 83 79 83 72 70 66 68 77 78 82 73 65 69 54 59 81 95 94 101 58 52 70 59 62 64 63 54 48 40 35 29 23 21 20 19 21
71 73 72 71 76 85 88 101 103 105 100 80 71 71 67 83 79 75 62 63 58 70 86 97 106 90 64 63 64 64 65 63 57 56 45 38 32 29 25 21 20 21 25
74 83 87 81 85 82 87 90 101 101 97 93 87 74 77 71 82 74 61 54 63 77 78 86 88 79 70 67 68 71 67 64 61 54 42 34 28 25 23 19 24 24 23
79 82 85 93 93 91 93 101 97 101 96 89 84 90 82 81 76 75 65 47 57 81 73 84 80 69 70 71 75 73 69 66 58 44 40 34 30 26 22 22 24 25 26
70 78 77 83 87 92 97 99 96 97 89 81 78 80 90 84 80 69 62 52 72 78 98 87 74 70 72 70 73 73 72 62 49 44 38 33 30 26 21 26 30 29 26
64 72 73 79 82 90 102 96 95 92 87 82 78 73 82 82 79 66 57 58 94 88 88 82 79 78 75 73 71 72 69 59 45 41 35 30 23 22 23 27 27 26 25
55 62 68 77 76 82 89 92 94 90 94 88 86 84 80 76 74 63 56 65 100 101 99 91 83 82 78 77 76 72 63 52 46 39 34 27 23 26 27 28 26 24 26
57 60 65 73 77 76 81 95 89 92 91 100 90 86 80 75 56 45 33 85 102 100 95 90 97 97 80 78 66 55 50 45 41 38 31 26 27 33 30 28 31 33 31
53 57 62 67 72 75 78 89 85 85 91 90 98 85 79 78 63 26 34 78 96 96 99 98 90 84 76 63 55 48 38 40 37 31 30 32 32 29 28 30 37 38 33
50 57 57 59 69 68 73 77 82 84 81 86 98 93 77 77 73 69 54 69 91 91 79 71 66 60 61 44 42 33 33 28 24 21 19 21 25 26 29 33 36 41 43
50 54 57 58 68 61 66 66 71 78 80 78 85 94 89 76 70 79 76 62 101 95 85 77 71 51 51 36 32 18 14 7 9 18 25 24 24 33 35 36 35 32 26
50 51 54 55 65 54 61 61 65 68 73 71 77 74 83 91 87 77 71 69 87 87 72 65 54 47 38 31 29 24 16 8 10 12 15 17 21 24 24 17 14 15 18
45 52 55 56 67 47 57 52 64 53 62 62 63 59 50 70 79 86 85 83 71 77 68 57 45 39 35 27 23 17 13 12 11 10 10 10 10 10 9 6 13 15 19
41 46 56 55 62 44 57 51 57 63 57 55 59 69 65 45 50 58 64 71 69 67 67 57 50 44 38 33 21 15 15 14 10 11 7 4 9 5 4 8 12 24 23
47 45 54 54 56 47 53 53 54 57 63 58 58 61 66 65 44 36 38 44 57 58 53 51 50 50 48 37 32 25 20 21 16 11 6 3 1 6 9 15 20 23 20
Wind_Direction_500mb
13 360 286 313 251 234 226 216 222 222 217 216 218 223 226 226 228 230 238 242 244 242 237 242 235 230 231 240 247 252 258 258 257 259 270 256 172 179 191 189 198 231 272
35 35 38 35 28 251 245 237 231 226 220 222 221 230 231 231 231 230 231 236 242 241 238 239 238 232 234 240 248 252 251 245 244 236 201 143 145 159 164 185 185 197 171
37 32 34 40 34 24 9 301 242 242 236 231 234 232 235 244 254 246 238 235 239 242 243 243 241 235 236 236 246 243 239 240 233 217 210 175 185 153 157 169 176 184 207
31 31 33 30 30 29 29 13 261 247 270 246 237 235 234 237 247 272 268 260 250 242 239 244 242 239 236 233 237 237 236 237 227 215 213 210 190 168 175 177 189 195 217
36 29 30 26 24 21 23 27 25 351 243 249 253 243 229 227 242 262 273 272 263 256 252 242 241 241 237 234 235 234 231 231 232 229 221 207 193 204 193 194 208 210 175
26 25 29 30 25 21 17 15 18 23 18 351 280 261 265 245 257 269 276 290 265 265 257 251 242 243 239 234 234 232 231 228 226 230 232 229 217 209 207 205 208 183 160
17 20 18 14 8 4 6 6 4 5 5 6 14 329 282 270 238 253 258 265 270 257 257 249 243 243 242 242 237 230 230 224 225 228 228 231 228 225 218 208 192 179 179
14 12 5 1 0 352 348 345 347 347 348 343 343 354 313 259 263 264 270 271 264 261 254 255 245 243 246 239 242 225 223 229 229 225 224 220 213 210 209 212 198 191 198
5 5 3 2 357 355 349 346 335 326 324 325 324 323 325 294 286 279 280 272 270 261 262 251 242 238 243 246 235 217 217 225 228 224 218 214 210 209 210 215 210 217 212
1 2 0 360 359 356 353 351 343 333 321 308 304 305 302 295 293 303 288 279 273 269 259 260 257 231 234 232 219 215 209 217 220 217 216 210 208 212 218 221 233 238 237
359 359 358 359 359 358 356 355 345 342 327 316 299 294 293 291 291 296 297 276 293 241 231 237 251 239 226 219 208 203 202 211 219 212 212 209 208 217 218 226 235 243 258
356 357 358 358 359 357 354 350 346 343 338 324 310 293 288 287 288 286 294 290 292 263 228 224 229 233 202 221 251 212 203 208 209 210 209 212 210 218 222 232 238 249 263
355 357 360 357 355 353 351 350 350 349 344 334 319 303 286 283 283 282 286 279 283 257 230 223 215 212 204 230 215 204 204 205 207 217 212 217 217 220 223 234 249 259 269
356 357 356 353 351 353 351 347 350 349 345 338 328 314 303 285 282 282 275 272 262 262 239 219 214 206 209 207 197 199 205 207 207 210 216 220 226 227 235 242 257 265 276
354 355 355 354 353 350 349 352 353 352 345 337 333 324 307 296 285 280 274 258 252 253 239 216 206 199 197 193 193 198 206 202 199 205 208 216 223 235 241 257 261 269 290
345 349 348 347 352 351 347 351 355 355 350 341 334 329 320 302 290 279 268 252 239 237 220 213 202 195 195 190 195 200 200 201 197 207 210 214 221 242 255 256 263 277 289
350 353 348 349 347 353 354 353 356 359 356 352 349 340 332 315 298 282 262 250 230 225 216 207 197 193 188 187 193 194 194 197 199 204 208 211 224 239 250 259 270 278 289
351 353 351 351 345 352 351 356 0 359 3 358 355 356 348 332 308 286 252 243 211 204 201 191 186 181 181 180 184 186 191 192 192 197 202 211 226 246 252 264 269 273 282
350 351 357 356 1 356 358 1 1 6 6 7 1 3 5 1 335 291 250 198 195 193 182 179 176 179 169 174 180 187 189 186 196 204 203 214 229 239 248 264 269 269 280
0 355 360 1 0 360 2 3 6 8 13 8 9 10 19 23 28 58 154 176 180 174 171 165 169 171 165 164 176 184 194 196 194 208 228 238 238 241 246 252 257 267 273
359 357 359 359 3 3 4 3 9 9 13 16 17 14 19 35 47 60 72 122 132 137 128 128 128 134 138 148 157 168 185 190 200 217 226 233 234 241 246 253 264 277 280
7 10 3 5 7 8 5 3 9 13 12 21 22 21 25 35 50 57 61 70 114 106 106 99 92 88 94 100 101 112 96 118 200 220 236 248 255 268 273 278 279 277 284
8 6 5 10 9 10 10 8 9 12 11 23 19 22 24 35 46 56 63 68 86 99 99 93 85 78 70 63 55 36 22 359 318 276 256 257 260 261 271 276 280 287 296
11 13 10 14 10 14 14 18 19 16 15 14 23 18 9 31 42 48 52 58 63 80 82 79 69 59 48 43 36 19 352 2 339 300 271 255 256 242 235 268 280 291 291
7 9 11 14 14 19 23 21 22 23 19 24 23 30 33 17 27 47 54 59 61 62 70 69 65 59 52 41 28 16 10 21 12 7 3 150 169 190 268 277 287 301 309
10 13 16 17 19 23 22 25 24 23 26 26 21 28 43 43 33 26 49 60 63 64 67 65 55 48 44 31 19 27 26 20 30 39 42 43 208 273 288 282 288 306 314
Wind_Speed_850mb
52 37 23 21 33 31 68 98 88 92 87 83 81 77 76 71 70 67 66 67 63 57 53 49 53 51 52 49 46 45 45 39 32 25 15 7 19 23 18 17 12 9 7
91 91 49 12 9 12 16 42 66 71 87 82 85 78 79 79 77 77 74 71 71 64 58 54 52 56 55 51 52 47 41 37 31 24 11 19 23 23 23 20 18 12 5
83 87 103 78 52 53 39 12 30 46 69 77 75 78 69 61 57 71 76 76 75 75 69 64 55 57 57 51 47 45 39 37 34 30 21 20 13 37 27 22 16 12 9
77 85 88 99 88 87 76 33 11 25 23 59 71 69 68 50 35 45 62 82 88 84 79 74 66 64 64 54 50 45 41 38 40 35 34 31 34 20 23 20 15 12 8
84 97 89 82 82 77 82 84 56 17 16 25 49 66 68 61 44 46 47 62 87 92 90 82 78 72 72 61 57 50 46 41 43 41 35 34 39 42 25 23 20 10 12
79 76 80 67 75 78 78 76 72 70 40 29 21 33 42 55 68 95 90 70 72 86 91 94 89 80 77 70 61 53 47 43 44 42 37 32 31 35 30 24 19 14 21
76 78 76 74 64 68 71 73 73 69 57 47 44 24 32 50 70 103 92 118 88 82 89 100 98 89 78 66 58 52 46 45 46 46 42 37 32 30 29 25 20 15 24
75 74 75 69 66 70 64 64 67 65 63 59 55 47 35 32 40 62 85 98 109 88 74 97 107 98 81 66 67 50 40 43 46 44 41 37 34 28 25 21 17 13 15
73 74 83 83 82 72 74 68 67 58 58 64 66 58 47 38 54 65 64 84 105 116 119 110 126 106 86 53 61 46 40 47 52 49 43 37 30 25 23 20 16 15 11
65 77 86 89 88 87 89 75 59 66 59 61 65 68 64 59 63 63 66 71 85 90 101 139 140 88 71 67 59 52 46 50 55 52 47 39 31 26 23 21 17 17 16
69 70 71 78 83 90 91 80 81 66 66 60 65 71 74 74 76 68 63 83 62 59 70 90 79 76 72 54 54 53 53 55 58 54 49 40 32 29 25 21 20 19 20
72 80 91 93 95 85 81 83 79 83 72 70 66 68 77 78 82 73 65 69 54 59 81 95 94 101 58 52 70 59 62 64 63 54 48 40 35 29 23 21 20 19 21
71 73 72 71 76 85 88 101 103 105 100 80 71 71 67 83 79 75 62 63 58 70 86 97 106 90 64 63 64 64 65 63 57 56 45 38 32 29 25 21 20 21 25
74 83 87 81 85 82 87 90 101 101 97 93 87 74 77 71 82 74 61 54 63 77 78 86 88 79 70 67 68 71 67 64 61 54 42 34 28 25 23 19 24 24 23
79 82 85 93 93 91 93 101 97 101 96 89 84 90 82 81 76 75 65 47 57 81 73 84 80 69 70 71 75 73 69 66 58 44 40 34 30 26 22 22 24 25 26
70 78 77 83 87 92 97 99 96 97 89 81 78 80 90 84 80 69 62 52 72 78 98 87 74 70 72 70 73 73 72 62 49 44 38 33 30 26 21 26 30 29 26
64 72 73 79 82 90 102 96 95 92 87 82 78 73 82 82 79 66 57 58 94 88 88 82 79 78 75 73 71 72 69 59 45 41 35 30 23 22 23 27 27 26 25
55 62 68 77 76 82 89 92 94 90 94 88 86 84 80 76 74 63 56 65 100 101 99 91 83 82 78 77 76 72 63 52 46 39 34 27 23 26 27 28 26 24 26
57 60 65 73 77 76 81 95 89 92 91 100 90 86 80 75 56 45 33 85 102 100 95 90 97 97 80 78 66 55 50 45 41 38 31 26 27 33 30 28 31 33 31
53 57 62 67 72 75 78 89 85 85 91 90 98 85 79 78 63 26 34 78 96 96 99 98 90 84 76 63 55 48 38 40 37 31 30 32 32 29 28 30 37 38 33
50 57 57 59 69 68 73 77 82 84 81 86 98 93 77 77 73 69 54 69 91 91 79 71 66 60 61 44 42 33 33 28 24 21 19 21 25 26 29 33 36 41 43
50 54 57 58 68 61 66 66 71 78 80 78 85 94 89 76 70 79 76 62 101 95 85 77 71 51 51 36 32 18 14 7 9 18 25 24 24 33 35 36 35 32 26
50 51 54 55 65 54 61 61 65 68 73 71 77 74 83 91 87 77 71 69 87 87 72 65 54 47 38 31 29 24 16 8 10 12 15 17 21 24 24 17 14 15 18
45 52 55 56 67 47 57 52 64 53 62 62 63 59 50 70 79 86 85 83 71 77 68 57 45 39 35 27 23 17 13 12 11 10 10 10 10 10 9 6 13 15 19
41 46 56 55 62 44 57 51 57 63 57 55 59 69 65 45 50 58 64 71 69 67 67 57 50 44 38 33 21 15 15 14 10 11 7 4 9 5 4 8 12 24 23
47 45 54 54 56 47 53 53 54 57 63 58 58 61 66 65 44 36 38 44 57 58 53 51 50 50 48 37 32 25 20 21 16 11 6 3 1 6 9 15 20 23 20
Wind_Direction_850mb
13 360 286 313 251 234 226 216 222 222 217 216 218 223 226 226 228 230 238 242 244 242 237 242 235 230 231 240 247 252 258 258 257 259 270 256 172 179 191 189 198 231 272
35 35 38 35 28 251 245 237 231 226 220 222 221 230 231 231 231 230 231 236 242 241 238 239 238 232 234 240 248 252 251 245 244 236 201 143 145 159 164 185 185 197 171
37 32 34 40 34 24 9 301 242 242 236 231 234 232 235 244 254 246 238 235 239 242 243 243 241 235 236 236 246 243 239 240 233 217 210 175 185 153 157 169 176 184 207
31 31 33 30 30 29 29 13 261 247 270 246 237 235 234 237 247 272 268 260 250 242 239 244 242 239 236 233 237 237 236 237 227 215 213 210 190 168 175 177 189 195 217
36 29 30 26 24 21 23 27 25 351 243 249 253 243 229 227 242 262 273 272 263 256 252 242 241 241 237 234 235 234 231 231 232 229 221 207 193 204 193 194 208 210 175
26 25 29 30 25 21 17 15 18 23 18 351 280 261 265 245 257 269 276 290 265 265 257 251 242 243 239 234 234 232 231 228 226 230 232 229 217 209 207 205 208 183 160
17 20 18 14 8 4 6 6 4 5 5 6 14 329 282 270 238 253 258 265 270 257 257 249 243 243 242 242 237 230 230 224 225 228 228 231 228 225 218 208 192 179 179
14 12 5 1 0 352 348 345 347 347 348 343 343 354 313 259 263 264 270 271 264 261 254 255 245 243 246 239 242 225 223 229 229 225 224 220 213 210 209 212 198 191 198
5 5 3 2 357 355 349 346 335 326 324 325 324 323 325 294 286 279 280 272 270 261 262 251 242 238 243 246 235 217 217 225 228 224 218 214 210 209 210 215 210 217 212
1 2 0 360 359 356 353 351 343 333 321 308 304 305 302 295 293 303 288 279 273 269 259 260 257 231 234 232 219 215 209 217 220 217 216 210 208 212 218 221 233 238 237
359 359 358 359 359 358 356 355 345 342 327 316 299 294 293 291 291 296 297 276 293 241 231 237 251 239 226 219 208 203 202 211 219 212 212 209 208 217 218 226 235 243 258
356 357 358 358 359 357 354 350 346 343 338 324 310 293 288 287 288 286 294 290 292 263 228 224 229 233 202 221 251 212 203 208 209 210 209 212 210 218 222 232 238 249 263
355 357 360 357 355 353 351 350 350 349 344 334 319 303 286 283 283 282 286 279 283 257 230 223 215 212 204 230 215 204 204 205 207 217 212 217 217 220 223 234 249 259 269
356 357 356 353 351 353 351 347 350 349 345 338 328 314 303 285 282 282 275 272 262 262 239 219 214 206 209 207 197 199 205 207 207 210 216 220 226 227 235 242 257 265 276
354 355 355 354 353 350 349 352 353 352 345 337 333 324 307 296 285 280 274 258 252 253 239 216 206 199 197 193 193 198 206 202 199 205 208 216 223 235 241 257 261 269 290
345 349 348 347 352 351 347 351 355 355 350 341 334 329 320 302 290 279 268 252 239 237 220 213 202 195 195 190 195 200 200 201 197 207 210 214 221 242 255 256 263 277 289
350 353 348 349 347 353 354 353 356 359 356 352 349 340 332 315 298 282 262 250 230 225 216 207 197 193 188 187 193 194 194 197 199 204 208 211 224 239 250 259 270 278 289
351 353 351 351 345 352 351 356 0 359 3 358 355 356 348 332 308 286 252 243 211 204 201 191 186 181 181 180 184 186 191 192 192 197 202 211 226 246 252 264 269 273 282
350 351 357 356 1 356 358 1 1 6 6 7 1 3 5 1 335 291 250 198 195 193 182 179 176 179 169 174 180 187 189 186 196 204 203 214 229 239 248 264 269 269 280
0 355 360 1 0 360 2 3 6 8 13 8 9 10 19 23 28 58 154 176 180 174 171 165 169 171 165 164 176 184 194 196 194 208 228 238 238 241 246 252 257 267 273
359 357 359 359 3 3 4 3 9 9 13 16 17 14 19 35 47 60 72 122 132 137 128 128 128 134 138 148 157 168 185 190 200 217 226 233 234 241 246 253 264 277 280
7 10 3 5 7 8 5 3 9 13 12 21 22 21 25 35 50 57 61 70 114 106 106 99 92 88 94 100 101 112 96 118 200 220 236 248 255 268 273 278 279 277 284
8 6 5 10 9 10 10 8 9 12 11 23 19 22 24 35 46 56 63 68 86 99 99 93 85 78 70 63 55 36 22 359 318 276 256 257 260 261 271 276 280 287 296
11 13 10 14 10 14 14 18 19 16 15 14 23 18 9 31 42 48 52 58 63 80 82 79 69 59 48 43 36 19 352 2 339 300 271 255 256 242 235 268 280 291 291
7 9 11 14 14 19 23 21 22 23 19 24 23 30 33 17 27 47 54 59 61 62 70 69 65 59 52 41 28 16 10 21 12 7 3 150 169 190 268 277 287 301 309
10 13 16 17 19 23 22 25 24 23 26 26 21 28 43 43 33 26 49 60 63 64 67 65 55 48 44 31 19 27 26 20 30 39 42 43 208 273 288 282 288 306 314